ECMWFNIL_925_rhum_138.txt.gz
RH
60 61 62 61 63 66 68 70 72 71 69 68 67 66 65 64 64 63 62 61 61 62 61 60 59 60 59 58 57 55 53 52 50 49 47 45 44 43 42 41 40 40
59 60 60 60 60 61 62 65 68 68 68 70 71 71 72 72 70 68 65 63 62 62 62 62 61 60 59 59 58 57 55 54 52 51 50 48 46 45 44 43 42 41
60 61 60 61 62 62 62 62 63 64 64 66 68 69 71 73 73 72 70 68 66 64 63 63 63 62 62 61 59 58 57 56 54 53 52 51 49 47 46 45 44 43
61 63 62 63 64 63 63 62 62 63 63 64 66 68 68 67 67 68 69 70 70 68 65 64 63 64 63 62 61 60 59 58 56 55 54 53 52 51 49 47 45 45
65 66 66 66 66 65 64 63 64 65 65 66 67 68 68 66 65 65 66 67 68 69 68 67 65 64 63 62 61 61 60 60 58 57 56 55 54 54 53 51 49 48
70 70 71 70 70 69 68 67 68 69 70 70 70 70 70 70 70 69 69 68 68 68 68 68 68 66 64 63 61 60 60 60 59 58 57 56 56 55 54 55 53 52
74 73 75 77 75 74 73 73 74 75 76 76 76 75 75 75 75 74 75 75 74 73 71 70 69 68 67 64 63 62 61 60 59 58 58 57 57 57 56 56 57 56
74 72 74 78 79 78 79 79 79 79 81 81 79 79 80 81 81 80 80 80 80 80 79 77 75 74 73 70 67 64 63 62 61 60 60 60 59 59 59 58 59 60
73 70 72 76 77 79 80 81 82 82 82 83 81 81 82 82 84 84 83 83 83 84 84 83 83 83 82 81 78 75 72 68 66 64 63 63 63 64 63 63 63 64
73 70 71 74 76 78 80 81 84 84 82 83 84 84 83 83 83 84 84 85 87 87 87 86 87 88 89 89 88 87 85 81 79 76 73 71 70 69 69 68 69 69
70 68 68 71 75 77 78 81 83 82 81 82 83 84 85 85 85 84 85 87 88 88 89 87 88 90 91 91 91 91 91 90 90 88 85 83 80 78 77 75 75 75
67 66 65 68 72 74 76 81 83 80 79 80 82 85 87 86 88 88 88 89 89 89 90 90 89 89 90 91 91 92 95 96 96 95 91 90 88 85 84 82 80 79
66 66 63 65 69 72 76 83 85 80 77 79 82 86 88 88 91 93 91 91 91 90 91 91 90 88 88 90 89 92 98 100 100 99 97 96 95 93 91 89 88 86
67 66 63 64 66 71 79 86 87 81 76 77 80 85 89 91 94 96 95 94 93 93 93 91 89 89 90 93 94 95 99 100 99 100 100 99 99 99 98 97 96 95
68 65 63 62 63 71 82 89 90 86 80 78 79 83 88 91 94 95 96 97 96 93 89 83 83 88 92 96 98 99 100 100 100 99 99 100 100 100 100 100 100 99
68 63 60 58 60 72 84 91 94 91 85 83 81 80 85 90 91 92 96 100 96 87 80 76 77 83 92 97 99 101 100 98 100 100 99 100 100 99 99 99 99 100
66 60 57 55 59 72 84 93 99 96 90 88 85 82 83 83 80 80 85 92 90 79 71 72 71 73 88 100 100 99 100 100 98 95 94 98 100 98 98 100 100 99
66 59 55 54 58 71 87 97 100 98 92 87 85 85 81 71 64 64 65 70 74 69 66 70 67 65 81 99 102 98 99 101 96 88 90 98 96 92 93 96 99 99
67 58 55 57 59 69 88 99 100 97 88 78 83 89 79 62 57 56 52 53 58 56 56 60 57 60 80 99 101 99 100 101 96 88 89 91 85 82 84 89 94 97
67 59 58 61 64 73 87 95 96 89 71 65 84 94 81 69 67 59 49 49 51 47 46 51 50 61 90 104 99 99 101 100 97 90 85 85 83 83 86 89 96 100
67 61 60 61 67 80 89 88 85 74 57 62 87 95 85 82 80 64 49 49 56 54 55 59 55 62 90 103 98 99 101 99 99 95 88 88 88 89 92 95 99 101
68 64 61 60 69 83 89 86 83 72 62 71 85 85 81 82 78 67 59 61 71 73 71 72 64 62 85 102 99 99 101 98 98 97 92 88 87 91 97 99 99 98
68 64 61 64 75 85 85 86 87 80 77 83 82 76 74 71 67 70 76 81 85 83 78 77 68 62 82 103 101 98 101 99 96 96 93 87 88 94 97 95 95 95
63 58 62 71 84 88 84 82 82 83 86 85 77 71 71 69 69 78 90 95 92 84 78 76 69 60 73 97 102 98 101 100 96 94 90 86 90 94 91 87 89 92
56 51 61 74 84 87 84 76 74 85 90 78 72 78 79 79 83 88 94 96 89 80 74 72 67 56 62 89 104 99 99 101 98 94 89 87 94 95 87 83 85 87
54 52 59 67 76 84 83 73 74 89 86 69 75 89 82 79 87 90 91 91 84 77 72 70 68 59 61 88 106 100 97 102 100 96 92 92 98 97 87 84 87 89

ECMWFNIL_925_rhum_144.txt.gz
RH
62 59 59 58 60 62 63 63 63 61 61 61 62 63 65 66 68 65 61 60 60 62 65 65 65 65 64 66 67 68 70 71 73 73 72 73 74 74 75 73 71 70
61 61 60 57 58 61 63 64 64 62 64 65 65 67 67 68 69 67 63 62 61 60 61 63 64 64 63 63 63 65 65 65 64 64 62 61 61 62 63 64 64 63
59 59 61 59 57 58 59 61 62 62 65 67 68 71 70 70 72 71 68 67 65 63 62 61 62 63 62 61 61 61 62 62 60 59 57 55 54 55 54 54 54 55
54 55 58 58 57 56 56 58 60 61 64 67 69 71 71 72 75 74 73 74 73 70 67 65 65 65 64 63 62 61 59 60 59 58 57 56 54 53 52 51 50 50
50 51 53 54 54 54 53 54 57 59 62 65 69 70 69 71 75 75 77 79 78 76 73 73 73 72 69 67 65 64 62 60 59 58 58 58 57 55 54 52 51 50
47 47 49 50 50 51 52 52 55 58 59 62 67 69 67 68 72 73 76 79 80 80 79 80 82 80 77 76 73 71 70 67 63 59 58 57 57 57 57 55 54 53
48 47 48 50 49 51 52 51 52 55 58 61 65 67 65 66 69 70 74 77 78 81 83 86 88 86 84 84 84 81 79 78 74 70 66 63 60 58 57 56 56 55
50 49 49 52 52 53 53 52 52 53 55 59 64 66 65 65 67 69 71 74 76 79 81 84 86 87 87 88 88 86 84 84 84 83 81 77 73 70 66 62 60 59
49 47 48 53 54 52 52 52 52 51 53 58 64 66 65 64 66 69 71 73 76 77 77 79 81 82 85 87 87 88 89 89 88 88 89 88 87 86 83 80 76 73
49 46 46 52 54 52 51 52 52 51 52 57 64 66 64 64 66 68 72 75 77 78 77 77 79 80 82 84 85 88 92 94 95 95 95 94 94 93 91 91 90 89
50 46 45 48 51 51 51 51 52 52 51 55 64 67 65 65 66 68 74 77 78 79 80 79 80 82 83 84 86 91 96 98 99 100 98 95 95 96 96 96 96 97
50 47 45 46 48 49 49 51 52 50 50 56 64 68 68 68 68 70 72 76 79 81 82 83 82 83 86 89 94 97 99 100 100 100 99 97 97 98 99 100 99 100
51 48 46 47 48 49 50 52 52 49 50 56 63 69 73 72 72 73 71 74 79 82 85 86 81 83 89 92 96 100 100 100 100 100 100 100 100 100 100 100 99 99
54 52 48 49 50 49 50 53 52 49 50 55 63 70 74 77 77 76 75 75 73 76 88 89 79 81 88 88 91 99 101 99 99 100 99 98 100 100 98 98 97 94
57 56 52 51 52 50 51 54 53 50 50 55 64 71 76 79 75 75 80 74 66 73 85 79 67 66 74 82 93 101 101 98 99 100 96 95 98 96 89 88 88 84
56 58 55 53 53 52 54 56 54 53 53 56 65 73 78 74 68 75 81 70 69 82 76 57 44 43 58 84 100 102 99 98 100 99 96 96 96 88 82 82 80 77
58 60 57 55 55 55 57 58 58 58 58 60 68 74 76 69 65 76 77 68 79 89 66 41 34 40 68 97 102 99 100 101 100 98 97 100 95 86 84 83 79 82
64 64 61 59 58 58 60 62 62 62 62 65 70 72 70 64 65 78 79 76 89 85 55 41 42 54 85 105 99 98 102 99 98 96 96 98 92 81 76 76 84 94
68 69 65 62 61 61 63 65 65 67 68 70 73 72 69 67 73 82 83 83 90 78 53 48 52 65 93 105 99 99 101 99 99 95 94 96 88 74 66 74 95 100
72 73 69 66 64 64 67 69 70 72 72 74 78 77 76 78 82 85 82 82 87 80 65 59 61 77 100 103 98 101 101 100 94 84 88 95 87 77 76 87 102 97
76 75 71 68 66 67 71 72 73 76 77 79 85 86 86 87 85 84 82 82 85 84 78 69 67 84 104 102 98 102 101 96 89 81 88 94 85 83 90 94 96 91
79 76 72 69 69 72 75 75 76 81 83 86 89 90 91 91 86 84 84 84 86 86 82 74 66 75 98 103 98 102 101 93 88 85 88 88 80 83 93 93 90 91
80 77 73 73 75 78 79 78 81 85 88 90 91 90 93 93 90 89 86 85 91 90 84 81 67 62 87 105 99 99 102 94 90 90 87 84 80 83 91 89 87 93
80 78 77 78 81 82 80 81 85 90 91 89 89 92 95 92 89 91 89 88 95 95 89 92 79 58 73 101 101 98 102 97 91 90 85 83 84 85 89 90 88 93
81 81 81 84 85 82 81 83 87 92 91 90 93 94 91 90 92 96 95 91 96 99 95 99 90 63 66 95 104 98 101 99 95 92 90 91 91 88 89 89 86 88
85 85 85 87 86 81 79 82 87 92 93 94 97 91 85 92 98 96 90 86 89 97 96 97 92 74 72 95 104 98 100 101 96 96 95 92 89 86 85 83 81 84

ECMWFNIL_925_rhum_150.txt.gz
RH
51 50 49 49 50 48 45 46 49 50 51 51 49 49 51 55 63 67 66 65 63 60 59 61 63 65 70 74 77 78 78 79 79 79 86 94 98 100 100 100 100 100
50 50 50 51 51 49 46 45 46 46 46 46 44 44 44 49 62 69 67 65 64 61 61 64 67 70 73 74 75 77 79 80 80 80 83 85 89 95 99 100 100 100
50 50 50 52 51 50 48 46 46 45 44 43 42 41 40 42 53 64 68 67 66 64 61 63 70 74 75 75 75 77 80 82 80 80 83 84 85 89 92 96 99 100
50 50 50 51 52 51 49 48 47 46 45 44 43 42 41 39 42 53 64 68 68 68 64 62 68 75 77 77 77 78 81 83 81 83 86 84 84 86 87 89 91 93
50 50 50 50 51 51 50 49 48 47 47 46 45 44 43 40 38 43 56 65 68 70 69 65 66 73 78 79 78 78 80 81 84 92 97 92 88 89 90 90 90 88
49 50 50 49 51 52 51 50 49 47 48 48 47 46 44 42 40 41 48 58 64 68 70 70 70 72 77 79 80 79 78 82 91 98 101 99 97 95 94 94 94 91
46 46 46 47 50 52 52 51 49 48 48 48 47 47 46 44 43 43 45 51 57 63 68 71 72 75 76 76 78 79 79 87 98 100 99 100 100 97 94 94 96 95
44 43 43 45 48 51 53 52 50 49 48 48 49 48 48 46 45 45 46 49 54 59 65 68 71 75 75 71 71 75 81 90 100 101 99 100 100 97 95 95 98 98
43 44 44 45 47 50 53 52 51 50 49 49 50 49 49 49 48 47 47 50 53 57 63 68 70 73 72 67 63 66 76 87 93 96 98 100 100 100 98 98 99 100
43 46 47 48 50 51 53 54 52 51 50 50 50 50 51 51 50 50 49 51 54 57 62 66 68 68 66 64 56 49 62 80 86 91 97 99 100 100 99 99 100 100
44 46 48 51 53 53 55 55 54 52 51 51 51 51 53 53 53 52 51 54 56 59 63 64 63 61 59 60 48 33 47 77 88 90 94 98 100 100 100 100 100 100
44 47 49 52 54 55 57 57 56 54 51 51 52 53 54 56 55 53 54 56 58 62 66 61 55 54 54 53 38 24 44 79 90 88 91 96 100 100 99 100 100 100
46 50 53 55 56 57 58 59 57 54 52 52 53 55 57 58 56 55 56 57 60 63 63 54 46 46 49 44 28 25 54 84 90 91 93 96 100 100 95 98 100 100
52 55 57 58 58 58 59 60 59 55 53 55 57 60 63 61 58 57 56 59 62 59 54 48 43 47 52 43 27 35 68 89 91 95 97 96 100 99 93 95 100 99
58 58 57 56 56 58 61 62 59 55 56 60 64 67 68 64 60 58 57 59 59 54 49 47 51 62 62 42 33 53 82 92 93 98 100 99 100 96 93 95 97 96
59 56 54 54 57 64 68 64 58 58 63 68 72 74 70 66 63 59 58 59 55 52 53 54 64 75 64 47 58 84 96 97 99 100 99 99 95 90 92 95 94 92
57 54 55 61 68 73 70 63 60 64 71 75 76 74 70 67 64 59 59 59 55 56 61 66 77 79 66 68 90 99 96 98 102 99 97 95 89 85 91 95 92 88
58 60 67 73 76 74 67 65 69 74 77 77 74 73 70 67 63 61 61 59 57 62 67 75 86 81 72 86 100 93 92 100 100 95 93 91 87 85 91 95 91 87
64 71 78 79 78 75 72 74 78 79 78 76 73 74 72 68 65 64 63 62 66 72 74 81 89 81 76 92 97 89 94 99 91 86 85 85 86 86 92 98 92 86
78 83 85 83 81 81 80 81 80 77 75 74 75 75 73 70 69 67 67 71 78 80 79 86 92 85 84 97 97 90 97 96 83 80 84 85 87 90 97 100 93 86
88 88 87 87 85 83 81 77 74 72 72 75 77 77 76 76 75 76 80 82 81 81 84 90 96 94 94 101 96 92 100 95 78 79 91 93 93 99 102 98 93 88
89 88 88 87 84 80 76 72 71 72 76 80 81 80 82 83 81 84 90 87 81 85 93 96 98 97 98 101 96 94 101 94 76 80 97 99 97 101 100 94 92 88
89 89 88 85 81 77 75 74 76 80 84 85 83 83 85 83 83 87 90 88 88 94 99 100 97 93 95 101 97 94 101 98 81 82 98 101 98 99 95 90 86 81
91 90 89 85 82 80 80 82 85 88 89 85 83 84 85 84 88 91 87 86 94 99 100 100 97 90 90 98 100 96 100 99 87 87 98 101 98 96 92 87 81 76
92 92 91 89 88 87 89 92 94 92 88 83 82 85 87 88 92 90 84 86 94 99 98 99 100 92 85 93 102 99 96 97 92 91 96 97 93 88 82 77 72 67
87 91 95 95 95 96 98 98 96 90 85 82 83 87 91 92 90 87 86 88 91 93 94 97 102 95 83 90 103 100 93 95 95 92 90 86 80 73 66 60 60 58

ECMWFNIL_925_rhum_156.txt.gz
RH
43 42 42 41 39 39 40 40 42 43 42 42 44 45 48 49 49 48 47 47 47 47 46 44 44 42 40 38 36 34 35 36 37 39 41 40 47 76 99 100 98 100
43 42 42 43 40 38 38 39 41 42 41 42 44 46 48 49 50 49 48 48 48 48 47 46 45 43 41 40 38 37 36 36 36 39 41 42 60 90 100 95 96 96
43 44 44 42 40 38 37 39 41 42 42 42 43 46 48 50 51 50 49 49 49 49 48 47 46 44 43 41 40 39 38 38 38 38 39 41 57 82 93 92 92 89
43 44 44 42 41 39 38 40 41 41 42 42 43 45 49 51 52 51 51 49 50 50 49 49 47 44 44 42 42 41 39 39 39 38 40 38 41 60 78 85 88 91
44 45 45 44 43 41 41 43 41 41 41 41 42 45 49 51 52 52 51 50 50 51 51 50 48 46 45 44 43 42 41 40 39 39 40 37 34 45 63 77 89 97
47 47 47 46 45 43 44 44 42 42 42 42 43 45 49 51 52 53 52 51 51 51 52 51 49 48 46 45 44 43 42 40 41 41 39 35 30 34 54 79 96 100
55 52 50 49 47 46 46 45 45 44 42 42 44 47 50 51 53 53 52 52 52 52 54 52 51 50 48 48 46 44 43 41 41 42 38 34 27 30 51 79 96 100
62 60 55 55 55 51 49 46 46 46 44 45 46 48 50 52 53 54 53 53 53 54 55 53 52 51 50 50 47 45 44 41 42 43 40 33 27 36 61 80 92 98
71 71 68 68 66 61 57 53 51 52 51 52 52 52 54 54 54 55 54 53 54 55 56 55 54 53 52 51 49 47 44 42 43 42 41 33 25 43 73 86 91 97
79 79 77 75 73 71 70 67 65 64 62 62 60 59 59 58 56 56 54 54 55 56 57 57 56 56 54 51 49 47 44 44 43 42 42 32 24 48 80 89 92 98
81 81 81 80 79 79 79 77 76 74 72 71 69 67 65 62 61 59 56 55 57 58 60 62 61 59 55 52 50 48 46 45 43 44 41 29 33 63 86 87 92 99
76 75 76 77 77 76 76 77 76 75 75 74 73 73 72 70 68 64 59 57 59 63 66 66 65 61 57 55 52 49 48 47 45 44 35 31 52 80 86 85 94 101
69 67 66 65 64 62 62 64 66 68 70 73 76 80 82 79 73 65 61 63 67 71 72 70 67 63 58 55 53 52 50 48 45 42 36 43 69 86 86 91 99 100
65 65 66 67 66 65 65 66 69 73 78 82 86 87 84 77 69 66 69 74 76 75 74 71 67 62 58 57 56 53 50 51 58 62 61 66 79 88 92 99 100 99
67 77 82 85 86 86 86 85 85 86 87 86 84 80 75 72 73 77 79 79 78 76 73 70 65 62 61 58 55 55 60 73 86 90 85 82 88 95 99 100 99 100
71 87 93 92 93 95 94 91 87 83 80 78 76 76 77 79 81 81 80 78 77 75 71 68 65 64 62 60 67 78 87 96 101 96 88 88 95 100 100 100 100 100
71 84 88 86 89 91 88 84 81 79 79 79 80 82 82 81 80 78 78 78 76 74 71 69 69 66 64 74 91 99 100 101 98 93 90 94 100 101 100 101 100 96
73 80 83 83 86 89 87 85 84 84 85 83 81 81 79 78 79 78 78 78 76 76 74 71 71 68 67 85 103 101 98 100 98 96 97 100 101 100 100 101 98 93
78 82 85 85 87 89 89 88 87 84 82 79 77 77 77 78 79 79 80 81 79 78 74 72 73 66 65 85 103 101 99 101 99 99 101 100 100 100 100 100 97 92
81 86 88 88 89 91 93 92 90 86 82 79 78 79 80 82 84 85 86 84 81 78 74 73 71 65 70 90 102 100 99 99 99 101 101 101 100 98 97 99 96 91
89 93 93 90 89 92 96 95 92 90 87 86 86 86 88 90 90 90 88 84 81 77 74 73 69 70 86 100 101 99 100 99 100 101 100 100 99 96 96 97 93 90
99 99 97 95 91 89 92 93 94 95 94 94 93 93 95 94 91 90 86 82 79 77 78 77 71 75 94 103 99 99 100 99 100 101 100 99 97 96 97 94 91 91
102 100 100 99 94 90 89 88 92 96 99 99 99 99 97 93 90 88 83 80 81 81 83 82 75 78 94 103 100 99 99 99 101 101 101 101 99 97 96 94 91 91
95 94 100 102 97 92 86 81 83 92 100 103 102 101 96 90 87 84 80 81 84 84 85 84 80 81 92 102 101 99 100 101 100 100 102 101 97 94 92 91 89 88
86 86 98 103 99 93 85 79 82 93 102 103 101 97 90 84 84 84 82 80 82 86 88 86 85 83 88 98 102 100 100 101 100 101 101 97 94 92 91 89 87 86
82 84 97 99 95 93 88 83 89 98 102 100 97 91 86 85 86 88 88 84 86 94 94 89 90 90 88 94 102 101 100 101 102 102 99 94 93 89 85 81 78 77